[[{"header":{"parameterUnit":"m.s-1","parameterCategory":1,"la1":30.2991,"la2":30.254,"lo1":-89.0895,"lo2":-89.0444,"dy":0.0017,"dx":0.0017,"nx":28,"ny":28,"refTime":"2024-12-14T03:00:00:Z","depth":0,"parameterNumber":2,"parameterNumberName":"U-component_of_WINDS"},"data":[0,0,0,0,0,0,0,0,0,0,0,0,0,0,0,0,0,0,0,0,0,0,0,0,0,0,0,0,0,0,0,0,0,0,0,0,0,0,0,0,0,0,0,0,0,0,0,0,0,0,0,0,0,0,0,0,0,0,-4.7537,-4.7537,0,-4.7494,-4.7494,-4.7493,-4.7357,-4.7354,-4.7351,-4.7348,-4.7306,-4.7308,-4.731,0,0,0,0,0,0,0,0,0,0,0,0,0,-4.7505,-4.7507,-4.7537,-4.7537,-4.7536,-4.7494,-4.7494,-4.7493,-4.7357,-4.7353,-4.735,-4.7346,-4.7306,-4.7308,-4.731,0,0,0,0,0,0,0,0,0,0,0,0,0,-4.7497,-4.7507,-4.7537,-4.7463,-4.7456,-4.7494,-4.7494,-4.7493,-4.7358,-4.7353,-4.7349,-4.7345,-4.7305,-4.7308,-4.731,-4.7417,0,0,-4.7318,-4.7319,0,0,0,0,0,0,0,0,-4.7497,-4.7498,-4.7475,-4.7468,-4.7461,-4.7426,-4.7467,-4.7468,-4.7359,-4.7395,-4.7348,-4.7342,-4.735,-4.7349,-4.7351,-4.7415,-4.7414,-4.7318,-4.732,-4.7321,-4.7322,0,0,0,0,0,0,0,-4.7498,-4.7499,-4.752,-4.7475,-4.7466,-4.7433,-4.7427,-4.7466,-4.7399,-4.7392,-4.7382,-4.7378,-4.7345,-4.7348,-4.7349,-4.7413,-4.7318,-4.7321,-4.7322,-4.7323,-4.7564,-4.7568,0,0,0,0,0,0,-4.7509,-4.75,-4.7522,-4.7519,-4.7468,-4.7438,-4.743,-4.7442,-4.7398,-4.7387,-4.7382,-4.7372,-4.7346,-4.7346,-4.7347,-4.7469,-4.7321,-4.7323,-4.7325,-4.7559,-4.7565,-4.757,0,0,0,0,0,0,-4.7509,-4.7512,-4.7523,-4.7507,-4.7506,-4.7443,-4.7457,-4.7443,-4.7446,-4.7391,-4.7378,-4.7398,-4.7343,-4.7343,-4.7401,-4.7465,-4.7325,-4.7327,-4.7553,-4.7561,-4.7567,-4.7715,0,0,0,0,0,0,-4.7508,-4.7513,-4.7552,-4.7509,-4.7507,-4.7577,-4.7461,-4.7446,-4.7451,-4.7437,-4.7402,-4.7392,-4.7339,-4.7397,-4.7403,-4.7466,-4.7329,-4.7547,-4.7557,-4.7565,-4.7704,-4.7726,-4.7745,0,0,0,0,0,-4.7508,-4.7596,-4.7555,-4.7558,-4.7555,-4.7581,-4.7581,-4.7517,-4.7456,-4.7496,-4.746,-4.7393,-4.7458,-4.7405,-4.741,-4.7475,-4.7543,-4.7554,-4.7564,-4.7694,-4.7722,-4.7745,0,0,0,0,0,0,-4.7649,-4.7589,-4.7542,-4.7619,-4.7606,-4.7558,-4.7606,-4.7548,-4.7553,-4.754,-4.7463,-4.7456,-4.7525,-4.7505,-4.7447,-4.7576,-4.7489,-4.7502,-4.7586,-4.7611,-4.7632,-4.7635,-4.7331,0,0,0,0,0,-4.7689,-4.7714,-4.7661,-4.7734,-4.773,-4.767,-4.7679,-4.7631,-4.7615,-4.7609,-4.7578,-4.7566,-4.7583,-4.7596,-4.761,-4.7701,-4.7691,-4.7748,-4.7769,-4.7786,-4.7798,-4.7845,-4.7869,-4.7606,-4.7606,-4.7605,0,0,-4.7772,-4.7742,-4.7763,-4.7761,-4.7746,-4.7775,-4.7666,-4.7701,-4.7722,-4.7615,-4.7666,-4.7644,-4.7625,-4.77,-4.7732,-4.7686,-4.7869,-4.78,-4.7814,-4.7816,-4.7858,-4.7883,-4.7906,-4.7613,-4.7612,-4.7611,0,0,-4.7937,-4.7918,-4.7976,-4.7963,-4.794,-4.79,-4.7914,-4.7875,-4.7856,-4.7906,-4.7827,-4.7851,-4.7883,-4.7873,-4.7872,-4.8036,-4.7974,-4.8043,-4.8151,-4.8197,-4.8218,-4.8236,-4.8294,-4.8316,-4.8055,-4.8055,-4.8055,0,-4.8043,-4.8083,-4.8013,-4.8054,-4.8056,-4.7959,-4.8018,-4.8009,-4.7993,-4.7997,-4.7947,-4.7985,-4.7966,-4.8037,-4.8077,-4.808,-4.8094,-4.8046,-4.8221,-4.8238,-4.8254,-4.8308,-4.833,-4.8063,-4.8062,-4.8062,-4.8061,0,-4.8214,-4.8243,-4.8293,-4.8279,-4.8286,-4.8336,-4.8275,-4.8292,-4.8244,-4.821,-4.8263,-4.8237,-4.8243,-4.8257,-4.8211,-4.8323,-4.8295,-4.8234,-4.8145,-4.8289,-4.8338,-4.8359,-4.8075,-4.8072,-4.807,-4.8068,0,0,-4.8466,-4.8413,-4.8432,-4.8425,-4.8394,-4.8416,-4.8462,-4.8467,-4.8483,-4.8476,-4.8512,-4.8542,-4.8486,-4.8485,-4.8438,-4.8479,-4.861,-4.8413,-4.8411,-4.845,-4.8731,-4.8776,-4.8801,-4.857,-4.8573,-4.8576,-4.8732,0,-4.8622,-4.8696,-4.8635,-4.8721,-4.8747,-4.8657,-4.8697,-4.8684,-4.8653,-4.8672,-4.8638,-4.866,-4.8584,-4.8583,-4.862,-4.8587,-4.8665,-4.8575,-4.8604,-4.8605,-4.861,-4.8827,-4.8875,-4.9023,-4.8751,-4.8755,-4.8757,0,-4.8813,-4.8814,-4.8902,-4.8866,-4.8874,-4.8912,-4.8912,-4.8931,-4.8914,-4.8889,-4.8889,-4.8831,-4.8874,-4.8788,-4.8848,-4.8787,-4.8796,-4.8782,-4.8786,-4.8785,-4.8689,-4.8832,-4.9069,-4.9091,-4.8787,-4.8785,-4.8782,0,-4.8987,-4.901,-4.9065,-4.9062,-4.9022,-4.905,-4.9035,-4.9013,-4.902,-4.9021,-4.9025,-4.9032,-4.9036,-4.9043,-4.8989,-4.8931,-4.9056,-4.8965,-4.9036,-4.9038,-4.9065,-4.9064,-4.9306,-4.9074,-4.9073,-4.9073,-4.9072,0,-4.9167,-4.9224,-4.9143,-4.9177,-4.9239,-4.917,-4.9234,-4.9209,-4.9191,-4.922,-4.9144,-4.9172,-4.9099,-4.9121,-4.9079,-4.9135,-4.9138,-4.9119,-4.9107,-4.9125,-4.9127,-4.9128,-4.9116,-4.9079,-4.9077,-4.9076,-4.9075,0,-4.937,-4.9318,-4.9373,-4.933,-4.9321,-4.9369,-4.9332,-4.9363,-4.9328,-4.9365,-4.937,-4.9316,-4.9337,-4.9284,-4.9298,-4.927,-4.935,-4.9322,-4.9355,-4.9346,-4.9421,-4.9414,-4.9671,-4.9701,-4.9451,-4.9453,-4.9455,0,-4.9487,-4.9529,-4.9491,-4.9504,-4.9493,-4.9516,-4.9522,-4.9457,-4.9468,-4.9453,-4.9485,-4.95,-4.9509,-4.9548,-4.951,-4.9521,-4.9492,-4.9581,-4.9493,-4.951,-4.9492,-4.949,-4.9493,-4.9599,-4.9602,-4.9605,-4.9607,0,-4.9701,-4.9673,-4.9685,-4.969,-4.97,-4.97,-4.9695,-4.9711,-4.9641,-4.9658,-4.9678,-4.9685,-4.9699,-4.9716,-4.9718,-4.9703,-4.9644,-4.9635,-4.9652,-4.967,-4.9687,-4.9678,-4.9404,-4.9629,-4.9627,-4.9625,-4.9624,-4.9623,-4.9863,-4.9897,-4.9875,-4.9892,-4.9881,-4.9879,-4.9905,-4.9874,-4.9889,-4.9895,-4.9856,-4.9886,-4.9869,-4.9866,-4.9858,-4.988,-4.984,-4.9865,-4.9871,-4.9877,-4.9889,-4.9685,-4.9881,-4.988,-4.988,-4.9879,-4.9878,0,-5.0072,-5.0054,-5.007,-5.0065,-5.0079,-5.0022,-5.0014,-5.0029,-5.0056,-5.0045,-5.0055,-5.0079,-5.0095,-5.0059,-5.007,-5.0095,-5.0068,-5.01,-5.0097,-5.0094,-4.9925,-4.9909,-5.0121,-5.0121,-5.0121,-5.0121,-5.0121,-5.0121,-5.0182,-5.0234,-5.0205,-5.0252,-5.0234,-5.0261,-5.0262,-5.0259,-5.025,-5.0281,-5.0293,-5.0269,-5.0249,-5.0258,-5.027,-5.0259,-5.0266,-5.0307,-5.0287,-5.013,-5.0106,-5.0083,-5.0068,-5.031,-5.031,-5.0454,-5.0455,-5.0456]},{"header":{"parameterUnit":"m.s-1","parameterCategory":1,"la1":30.2991,"la2":30.254,"lo1":-89.0895,"lo2":-89.0444,"dy":0.0017,"dx":0.0017,"nx":28,"ny":28,"refTime":"2024-12-14T03:00:00:Z","depth":0,"parameterNumber":3,"parameterNumberName":"V-component_of_WINDS"},"data":[0,0,0,0,0,0,0,0,0,0,0,0,0,0,0,0,0,0,0,0,0,0,0,0,0,0,0,0,0,0,0,0,0,0,0,0,0,0,0,0,0,0,0,0,0,0,0,0,0,0,0,0,0,0,0,0,0,0,-0.9344,-0.9344,0,-0.9416,-0.9416,-0.9417,-0.9433,-0.9432,-0.9432,-0.9431,-0.9505,-0.9507,-0.951,0,0,0,0,0,0,0,0,0,0,0,0,0,-0.9218,-0.922,-0.9344,-0.9345,-0.9345,-0.9415,-0.9416,-0.9417,-0.9433,-0.9432,-0.9432,-0.9431,-0.9504,-0.9507,-0.951,0,0,0,0,0,0,0,0,0,0,0,0,0,-0.9279,-0.9221,-0.9343,-0.9362,-0.9364,-0.9415,-0.9416,-0.9418,-0.9433,-0.9432,-0.9432,-0.9431,-0.9503,-0.9507,-0.951,-0.9548,0,0,-0.9521,-0.9523,0,0,0,0,0,0,0,0,-0.9276,-0.9284,-0.9358,-0.936,-0.9363,-0.9414,-0.9399,-0.9462,-0.9433,-0.9407,-0.9431,-0.943,-0.9475,-0.9481,-0.9496,-0.9552,-0.9555,-0.9522,-0.9524,-0.9526,-0.9527,0,0,0,0,0,0,0,-0.9272,-0.9281,-0.9372,-0.9359,-0.9362,-0.9366,-0.9373,-0.9411,-0.9445,-0.9409,-0.941,-0.9419,-0.9477,-0.9493,-0.9498,-0.9556,-0.9522,-0.9525,-0.9527,-0.9529,-0.9644,-0.9645,0,0,0,0,0,0,-0.9264,-0.9277,-0.937,-0.9374,-0.9317,-0.9368,-0.9377,-0.9399,-0.9444,-0.945,-0.9419,-0.9419,-0.9487,-0.9494,-0.9501,-0.9547,-0.9525,-0.9529,-0.9531,-0.9643,-0.9644,-0.9645,0,0,0,0,0,0,-0.9262,-0.9272,-0.9367,-0.9326,-0.9338,-0.9371,-0.9395,-0.9401,-0.9417,-0.9452,-0.9458,-0.943,-0.9487,-0.9496,-0.9536,-0.955,-0.9531,-0.9534,-0.9642,-0.9644,-0.9645,-0.9641,0,0,0,0,0,0,-0.9258,-0.9271,-0.9287,-0.9326,-0.9341,-0.9401,-0.9396,-0.9403,-0.9423,-0.9424,-0.9463,-0.9469,-0.9487,-0.953,-0.954,-0.9555,-0.9537,-0.9641,-0.9643,-0.9644,-0.964,-0.9642,-0.9644,0,0,0,0,0,-0.9253,-0.9283,-0.9288,-0.9299,-0.9361,-0.9402,-0.941,-0.943,-0.9424,-0.944,-0.9462,-0.9468,-0.9547,-0.9534,-0.9545,-0.9561,-0.964,-0.9642,-0.9644,-0.9639,-0.9642,-0.9644,0,0,0,0,0,0,-0.9245,-0.9289,-0.9294,-0.9338,-0.9366,-0.9405,-0.9425,-0.9432,-0.9463,-0.9462,-0.9485,-0.9493,-0.9532,-0.9551,-0.9536,-0.96,-0.9593,-0.9598,-0.9586,-0.9589,-0.959,-0.9585,-0.954,0,0,0,0,0,-0.9248,-0.9279,-0.9315,-0.935,-0.9364,-0.9392,-0.9411,-0.9423,-0.9453,-0.9465,-0.9491,-0.9519,-0.955,-0.9571,-0.9601,-0.9643,-0.9651,-0.9659,-0.9661,-0.9662,-0.9666,-0.9687,-0.9691,-0.9652,-0.9652,-0.9652,0,0,-0.9256,-0.9283,-0.9301,-0.9349,-0.9373,-0.9403,-0.9402,-0.9435,-0.9457,-0.947,-0.951,-0.9529,-0.9562,-0.9603,-0.9622,-0.962,-0.9678,-0.9665,-0.9666,-0.9668,-0.969,-0.9693,-0.9696,-0.9653,-0.9653,-0.9653,0,0,-0.9284,-0.9308,-0.9339,-0.9362,-0.9397,-0.9415,-0.9422,-0.946,-0.9473,-0.9512,-0.9523,-0.9549,-0.9603,-0.9626,-0.9644,-0.9679,-0.9685,-0.9688,-0.9698,-0.9718,-0.9721,-0.9724,-0.9735,-0.9739,-0.9691,-0.9691,-0.9691,0,-0.9288,-0.9335,-0.9354,-0.9386,-0.9406,-0.9419,-0.945,-0.9471,-0.9514,-0.9528,-0.9524,-0.9591,-0.9614,-0.9659,-0.9667,-0.9683,-0.9691,-0.9684,-0.9719,-0.9722,-0.9725,-0.9736,-0.974,-0.9691,-0.9691,-0.9691,-0.9691,0,-0.9338,-0.9369,-0.939,-0.9431,-0.9453,-0.9484,-0.9508,-0.9528,-0.9538,-0.9556,-0.9595,-0.9623,-0.9659,-0.9671,-0.9681,-0.9717,-0.9714,-0.9715,-0.9709,-0.9729,-0.9739,-0.9744,-0.9691,-0.9691,-0.9691,-0.9691,0,0,-0.9364,-0.9414,-0.9421,-0.9439,-0.9477,-0.9502,-0.9533,-0.9567,-0.9584,-0.9612,-0.9638,-0.9682,-0.9682,-0.9703,-0.9716,-0.9734,-0.9758,-0.9733,-0.9734,-0.9735,-0.9797,-0.9796,-0.98,-0.9762,-0.9763,-0.9764,-0.9794,0,-0.9396,-0.9452,-0.947,-0.9516,-0.9544,-0.9556,-0.9583,-0.9608,-0.9625,-0.9652,-0.967,-0.9701,-0.9699,-0.9712,-0.973,-0.9751,-0.977,-0.9749,-0.9785,-0.9786,-0.9776,-0.9806,-0.9806,-0.9833,-0.9798,-0.9799,-0.98,0,-0.9442,-0.9471,-0.9519,-0.9552,-0.9565,-0.9589,-0.9621,-0.9646,-0.9675,-0.9686,-0.9708,-0.9719,-0.975,-0.9742,-0.9785,-0.977,-0.9786,-0.9798,-0.9799,-0.9803,-0.9794,-0.981,-0.9842,-0.9846,-0.9806,-0.9806,-0.9805,0,-0.9455,-0.9506,-0.9541,-0.9556,-0.9596,-0.9612,-0.9629,-0.9657,-0.9676,-0.9704,-0.9716,-0.9747,-0.9764,-0.9788,-0.9806,-0.9799,-0.9847,-0.9841,-0.9856,-0.9855,-0.9866,-0.9865,-0.99,-0.9877,-0.9877,-0.9877,-0.9876,0,-0.9489,-0.9518,-0.9547,-0.9569,-0.9601,-0.962,-0.9652,-0.9669,-0.9694,-0.9719,-0.973,-0.9753,-0.9776,-0.9802,-0.9816,-0.9849,-0.9857,-0.9866,-0.9869,-0.9864,-0.9863,-0.9875,-0.9873,-0.9878,-0.9877,-0.9877,-0.9877,0,-0.9509,-0.953,-0.9569,-0.9603,-0.9612,-0.9634,-0.9662,-0.9683,-0.97,-0.9731,-0.9739,-0.9765,-0.9795,-0.9816,-0.9855,-0.9865,-0.99,-0.9903,-0.989,-0.9891,-0.9905,-0.9903,-0.9949,-0.9955,-0.9928,-0.9928,-0.9928,0,-0.9529,-0.9552,-0.9587,-0.9604,-0.9622,-0.9649,-0.9668,-0.9687,-0.9707,-0.974,-0.9756,-0.9787,-0.9813,-0.9861,-0.9883,-0.9913,-0.9917,-0.993,-0.9921,-0.9915,-0.9916,-0.9914,-0.9916,-0.9932,-0.9932,-0.9932,-0.9932,0,-0.9562,-0.9571,-0.9598,-0.9628,-0.965,-0.9675,-0.97,-0.9713,-0.9736,-0.9757,-0.9788,-0.9808,-0.9847,-0.9877,-0.9908,-0.9925,-0.9932,-0.9935,-0.994,-0.9935,-0.9926,-0.993,-0.9893,-0.9934,-0.9934,-0.9934,-0.9934,-0.9934,-0.9583,-0.9603,-0.963,-0.9659,-0.968,-0.9702,-0.9723,-0.9741,-0.9767,-0.98,-0.981,-0.9842,-0.9868,-0.9911,-0.9928,-0.9952,-0.9951,-0.9959,-0.996,-0.9962,-0.9961,-0.9922,-0.9958,-0.9958,-0.9958,-0.9958,-0.9958,0,-0.9616,-0.9633,-0.966,-0.9694,-0.9716,-0.972,-0.9747,-0.9766,-0.9793,-0.9817,-0.9842,-0.9876,-0.9905,-0.9929,-0.9958,-0.9973,-0.9977,-0.998,-0.9979,-0.9983,-0.9961,-0.9953,-0.9977,-0.9977,-0.9977,-0.9977,-0.9977,-0.9977,-0.9635,-0.9669,-0.968,-0.9723,-0.974,-0.9771,-0.9786,-0.9806,-0.9825,-0.9863,-0.9887,-0.9902,-0.9925,-0.9956,-0.9982,-0.9988,-0.9998,-1.0001,-1.0007,-0.9987,-0.9985,-0.9983,-0.9975,-1.0003,-1.0003,-1.0027,-1.0027,-1.0027]}]]